Regional Weather Roundup
Issued by NWS

Home | Current Version | Previous Version | Graphics & Text | Print | Product List | Glossary On
Versions: 1 2 3 4 5 6 7 8 9 10 11 12 13 14 15 16 17 18 19 20 21 22 23 24 25 26 27 28 29 30 31 32 33 34 35 36 37 38 39 40 41 42 43 44 45 46 47 48 49 50
000
ASUS43 KBIS 212010
RWRND

NORTH DAKOTA REGIONAL WEATHER ROUNDUP
NATIONAL WEATHER SERVICE BISMARCK ND
200 PM CST SUN DEC 21 2014

NOTE: "FAIR" INDICATES FEW OR NO CLOUDS BELOW 12,000 FEET WITH NO
SIGNIFICANT WEATHER AND/OR OBSTRUCTIONS TO VISIBILITY.


NDZ001>003-009>011-017-212100-
NORTHWEST NORTH DAKOTA

CITY           SKY/WX    TMP DP  RH WIND       PRES   REMARKS
WILLISTON      CLOUDY    34  27  75 CALM      29.34F
MINOT          SUNNY     36  31  82 E9        29.41F
MINOT AFB      MOSUNNY   32  32 100 SE8       29.40F
$$

NDZ018>021-031>035-040>046-212100-
SOUTHWEST NORTH DAKOTA

CITY           SKY/WX    TMP DP  RH WIND       PRES   REMARKS
BISMARCK       SUNNY     38  28  67 SE8       29.45F
DICKINSON      CLOUDY    41  28  60 SW9       29.36F
GARRISON         N/A     36  30  79 SE3       29.41F
HETTINGER ARPT CLOUDY    40  28  62 SW5       29.40F
$$

NDZ004>008-012>016-024-026-027-054-212100-
NORTHEAST NORTH DAKOTA

CITY           SKY/WX    TMP DP  RH WIND       PRES   REMARKS
GRAND FORKS    CLOUDY    31  30  96 S12       29.61F FOG
GRND FRKS AFB  CLOUDY    32  32 100 S15       29.59F
DEVILS LAKE    CLOUDY    28  23  80 SE12      29.51S WCI  18
$$

NDZ022-023-025-028>030-036>039-047>053-212100-
SOUTHEAST NORTH DAKOTA

CITY           SKY/WX    TMP DP  RH WIND       PRES   REMARKS
FARGO          CLOUDY    34  30  85 SE12G23   29.61F
JAMESTOWN      CLOUDY    33  30  88 SE13      29.52F FOG
$$



USA.gov is the U.S. government's official web portal to all federal, state and local government web resources and services.